This demonstration page uses our WeatherBlox Daily Observations layout. Learn more.

Left ArrowRight Arrow

36.17497, -115.13722

Hourly Observations for January 2, 2019

Temp ( °F °C ) Dew Point ( °F °C ) Humidity (%) Winds ( mph kmh ) Pressure ( in mb ) Visibility ( mi km ) Precip ( " mm )
12:53 am 00:53 Clear 34 1.1 2 -16.7 25 25 ESE 5 7 30.32 1027 10 16.0934 0 0
1:53 am 01:53 Clear 29 -1.7 5 -15 36 36 W 5 7 30.34 1028 10 16.0934 0 0
2:53 am 02:53 Clear 29 -1.7 4 -15.6 34 34 WNW 3 6 30.34 1027 10 16.0934 0 0
3:53 am 03:53 Clear 28 -2.2 4 -15.6 35 35 Calm 30.32 1027 10 16.0934 0 0
4:53 am 04:53 Clear 27 -2.8 4 -15.6 37 37 S 5 7 30.34 1028 10 16.0934 0 0
5:53 am 05:53 Clear 28 -2.2 4 -15.6 35 35 WSW 5 7 30.37 1028 10 16.0934 0 0
6:53 am 06:53 Sunny 29 -1.7 3 -16.1 33 33 Calm 30.4 1029 10 16.0934 0 0
7:53 am 07:53 Sunny 30 -1.1 5 -15 34 34 VRB 3 6 30.42 1030 10 16.0934 0 0
8:53 am 08:53 Sunny 34 1.1 3 -16.1 27 27 SSW 3 6 30.44 1031 10 16.0934 0 0
9:53 am 09:53 Sunny 39 3.9 3 -16.1 22 22 Calm 30.43 1030 10 16.0934 0 0
10:53 am 10:53 Sunny 39 3.9 4 -15.6 23 23 SE 8 13 30.4 1029 10 16.0934 0 0
11:53 am 11:53 Sunny 42 5.6 4 -15.6 20 20 ESE 5 7 30.37 1028 10 16.0934 0 0
12:53 pm 12:53 Sunny 44 6.7 3 -16.1 18 18 Calm 30.34 1027 10 16.0934 0 0
1:53 pm 13:53 Sunny 46 7.8 3 -16.1 17 17 ENE 3 6 30.33 1027 10 16.0934 0 0
2:53 pm 14:53 Sunny 47 8.3 4 -15.6 17 17 E 3 6 30.32 1027 10 16.0934 0 0
3:53 pm 15:53 Sunny 46 7.8 5 -15 18 18 SE 6 9 30.33 1027 10 16.0934 0 0
4:53 pm 16:53 Clear 44 6.7 6 -14.4 21 21 SE 5 7 30.35 1028 10 16.0934 0 0
5:53 pm 17:53 Clear 43 6.1 6 -14.4 22 22 Calm 30.36 1028 10 16.0934 0 0
6:53 pm 18:53 Clear 41 5 8 -13.3 25 25 WSW 5 7 30.37 1028 10 16.0934 0 0
7:53 pm 19:53 Clear 39 3.9 9 -12.8 29 29 W 6 9 30.37 1028 8 12.87472 0 0
8:53 pm 20:53 Clear 37 2.8 9 -12.8 31 31 NW 5 7 30.38 1029 10 16.0934 0 0
9:53 pm 21:53 Clear 34 1.1 9 -12.8 35 35 NW 5 7 30.37 1029 10 16.0934 0 0
10:53 pm 22:53 Clear 34 1.1 10 -12.2 37 37 WNW 6 9 30.39 1029 10 16.0934 0 0
11:53 pm 23:53 Clear 34 1.1 10 -12.2 37 37 W 5 7 30.39 1029 10 16.0934 0 0

Powered by AerisWeather